C/2021 A6 ( PanSTARRS )

Japanese version
Home page
Updated on March 27, 2022

---------------------------------------------------------------------

* Profile

Discovery Date January 8, 2021
Magnitude 20.8 mag
Discoverer Pan-STARRS 1 telescope (Haleakala)

* Pictures

* Orbital Elements

Epoch 2022 Jan. 21.0 TT = JDT 2459600.5
T 2021 May 4.21912 TT                                   Rudenko
q   7.9286160            (2000.0)            P               Q
z  +0.0000923      Peri.  351.69791     -0.94172234     -0.20630279
 +/-0.0000017      Node   164.07927     +0.33632589     -0.56186833
e   0.9992686      Incl.   75.61165     -0.00662732     +0.80108872
From 112 observations 2020 Nov. 26-2022 Jan. 27, mean residual 0".4.

* Magnitudes Graph

        m1 = 6.0 + 5 log d + 10.0 log r

---------------------------------------------------------------------

The orbital elements are published on M.P.E.C. 2022-C56.
The magnitudes graphs are made with Comet for Windows.

---------------------------------------------------------------------

Copyright(C) Seiichi Yoshida (comet@aerith.net). All rights reserved.